Total_Precipitation_Accumulation
0.00 0.00 0.00 0.00 0.00 0.00 0.00 0.00 0.00 0.00 0.00 0.00 0.00 0.00 0.00 0.00 0.00 0.00 0.00 0.00 0.00 0.00 0.00 0.00 0.00 0.00 0.00 0.00 0.00 0.00 0.00 0.00 0.00 0.00 0.00 0.00 0.00 0.00 0.00 0.00 0.00 0.00 0.00 0.00 0.00 0.00 0.00
0.01 0.00 0.00 0.00 0.00 0.00 0.00 0.00 0.00 0.00 0.00 0.00 0.00 0.00 0.00 0.00 0.00 0.00 0.00 0.00 0.00 0.00 0.00 0.00 0.00 0.00 0.00 0.00 0.00 0.00 0.00 0.00 0.00 0.00 0.00 0.00 0.00 0.00 0.00 0.00 0.00 0.00 0.00 0.00 0.00 0.00 0.00
0.01 0.00 0.00 0.00 0.00 0.00 0.00 0.00 0.00 0.00 0.00 0.00 0.00 0.00 0.00 0.00 0.00 0.00 0.00 0.00 0.00 0.00 0.00 0.00 0.00 0.00 0.00 0.00 0.00 0.00 0.00 0.00 0.00 0.00 0.00 0.00 0.00 0.00 0.00 0.00 0.00 0.00 0.00 0.00 0.00 0.00 0.00
0.02 0.01 0.01 0.01 0.00 0.00 0.00 0.00 0.00 0.00 0.00 0.00 0.00 0.00 0.00 0.00 0.00 0.00 0.00 0.00 0.00 0.00 0.00 0.00 0.00 0.00 0.00 0.00 0.00 0.00 0.00 0.00 0.00 0.00 0.00 0.00 0.00 0.00 0.00 0.00 0.00 0.00 0.00 0.00 0.00 0.00 0.00
0.03 0.02 0.01 0.01 0.00 0.00 0.00 0.00 0.00 0.00 0.00 0.00 0.00 0.00 0.00 0.00 0.00 0.00 0.00 0.00 0.00 0.00 0.00 0.00 0.00 0.00 0.00 0.00 0.00 0.00 0.00 0.00 0.00 0.00 0.00 0.00 0.00 0.00 0.00 0.00 0.00 0.00 0.00 0.00 0.00 0.00 0.00
0.02 0.03 0.03 0.01 0.00 0.00 0.00 0.00 0.00 0.00 0.00 0.00 0.00 0.00 0.00 0.00 0.00 0.00 0.00 0.00 0.00 0.00 0.00 0.00 0.00 0.00 0.00 0.00 0.00 0.00 0.00 0.00 0.00 0.00 0.00 0.00 0.00 0.00 0.00 0.00 0.00 0.00 0.00 0.00 0.00 0.00 0.00
0.01 0.02 0.03 0.03 0.02 0.01 0.00 0.00 0.00 0.00 0.00 0.00 0.00 0.00 0.00 0.00 0.00 0.00 0.00 0.00 0.00 0.00 0.00 0.00 0.00 0.00 0.00 0.00 0.00 0.00 0.00 0.00 0.00 0.00 0.00 0.00 0.00 0.00 0.00 0.00 0.00 0.00 0.00 0.00 0.00 0.00 0.00
0.00 0.02 0.03 0.04 0.03 0.02 0.01 0.00 0.00 0.00 0.00 0.00 0.00 0.00 0.00 0.00 0.00 0.00 0.00 0.00 0.00 0.00 0.00 0.00 0.00 0.00 0.00 0.00 0.00 0.00 0.00 0.00 0.00 0.00 0.00 0.00 0.00 0.00 0.00 0.00 0.00 0.00 0.00 0.00 0.00 0.00 0.00
0.01 0.01 0.04 0.06 0.07 0.05 0.02 0.02 0.01 0.00 0.00 0.00 0.00 0.00 0.00 0.00 0.00 0.00 0.00 0.00 0.00 0.00 0.00 0.00 0.00 0.00 0.00 0.00 0.00 0.00 0.00 0.00 0.00 0.00 0.00 0.00 0.00 0.00 0.00 0.00 0.00 0.00 0.00 0.00 0.00 0.00 0.00
0.01 0.00 0.02 0.05 0.08 0.11 0.07 0.02 0.02 0.01 0.00 0.00 0.00 0.00 0.00 0.00 0.00 0.00 0.00 0.00 0.00 0.00 0.00 0.00 0.00 0.00 0.00 0.00 0.00 0.00 0.00 0.00 0.00 0.00 0.00 0.00 0.00 0.00 0.00 0.00 0.00 0.00 0.00 0.00 0.00 0.00 0.00
0.05 0.03 0.02 0.03 0.07 0.11 0.18 0.11 0.03 0.01 0.01 0.01 0.00 0.00 0.00 0.00 0.00 0.00 0.00 0.00 0.01 0.01 0.00 0.00 0.00 0.00 0.00 0.00 0.00 0.00 0.00 0.00 0.00 0.00 0.00 0.00 0.00 0.00 0.00 0.00 0.00 0.00 0.00 0.00 0.00 0.00 0.00
0.06 0.05 0.04 0.04 0.05 0.10 0.21 0.29 0.15 0.07 0.03 0.01 0.01 0.01 0.01 0.01 0.00 0.01 0.01 0.01 0.04 0.01 0.00 0.00 0.00 0.00 0.00 0.00 0.00 0.00 0.00 0.00 0.00 0.00 0.00 0.00 0.00 0.00 0.00 0.00 0.00 0.00 0.00 0.00 0.00 0.00 0.00
0.07 0.09 0.07 0.07 0.06 0.09 0.15 0.27 0.31 0.24 0.13 0.06 0.03 0.03 0.04 0.03 0.01 0.00 0.06 0.11 0.11 0.02 0.00 0.00 0.00 0.00 0.00 0.00 0.00 0.00 0.00 0.00 0.00 0.00 0.00 0.00 0.00 0.00 0.00 0.00 0.00 0.00 0.00 0.00 0.00 0.00 0.00
0.09 0.12 0.14 0.11 0.14 0.08 0.14 0.22 0.32 0.32 0.35 0.20 0.13 0.11 0.07 0.03 0.02 0.07 0.15 0.31 0.29 0.01 0.00 0.00 0.00 0.00 0.00 0.00 0.00 0.00 0.00 0.00 0.00 0.00 0.00 0.00 0.00 0.00 0.00 0.00 0.00 0.00 0.00 0.00 0.00 0.00 0.00
0.06 0.11 0.13 0.18 0.20 0.17 0.11 0.19 0.28 0.36 0.40 0.47 0.40 0.38 0.17 0.03 0.03 0.12 0.25 0.48 0.20 0.00 0.00 0.00 0.00 0.00 0.00 0.00 0.00 0.00 0.00 0.00 0.00 0.00 0.00 0.00 0.00 0.00 0.00 0.00 0.00 0.00 0.00 0.00 0.00 0.00 0.01
0.07 0.08 0.10 0.11 0.24 0.21 0.20 0.16 0.26 0.39 0.50 0.64 0.89 0.75 0.48 0.07 0.10 0.35 0.76 0.44 0.06 0.00 0.00 0.00 0.00 0.00 0.00 0.00 0.00 0.00 0.00 0.00 0.00 0.00 0.00 0.00 0.00 0.00 0.00 0.00 0.00 0.00 0.00 0.00 0.00 0.00 0.00
0.08 0.09 0.10 0.10 0.16 0.28 0.21 0.21 0.19 0.41 0.58 0.82 1.22 1.23 0.52 0.20 0.41 1.16 1.12 0.42 0.05 0.00 0.00 0.00 0.00 0.00 0.00 0.00 0.00 0.00 0.00 0.00 0.00 0.00 0.00 0.00 0.00 0.00 0.00 0.00 0.00 0.00 0.00 0.00 0.00 0.00 0.00
0.06 0.09 0.13 0.12 0.09 0.23 0.29 0.26 0.26 0.31 0.67 1.25 1.71 1.49 0.60 0.34 1.37 1.59 0.81 0.17 0.03 0.00 0.00 0.00 0.00 0.00 0.00 0.01 0.00 0.00 0.00 0.00 0.00 0.00 0.00 0.00 0.00 0.00 0.00 0.00 0.00 0.00 0.00 0.00 0.00 0.00 0.00
0.04 0.08 0.15 0.21 0.13 0.18 0.24 0.30 0.32 0.35 0.60 1.35 1.91 1.41 1.20 0.57 1.40 1.12 0.64 0.20 0.04 0.01 0.00 0.00 0.00 0.00 0.00 0.01 0.02 0.01 0.00 0.00 0.00 0.00 0.00 0.00 0.00 0.06 0.04 0.01 0.00 0.00 0.00 0.00 0.00 0.00 0.01
0.04 0.06 0.13 0.24 0.24 0.17 0.31 0.29 0.33 0.47 0.50 1.25 1.86 1.63 2.08 1.63 1.02 0.65 0.41 0.31 0.13 0.01 0.00 0.00 0.00 0.00 0.00 0.02 0.02 0.01 0.06 0.01 0.00 0.00 0.00 0.00 0.00 0.02 0.09 0.05 0.00 0.00 0.00 0.00 0.00 0.01 0.00
0.02 0.03 0.10 0.16 0.28 0.24 0.32 0.43 0.35 0.46 0.65 1.54 2.11 1.80 1.38 1.44 0.98 0.78 0.47 0.25 0.13 0.06 0.01 0.00 0.00 0.00 0.00 0.01 0.04 0.08 0.05 0.02 0.00 0.00 0.00 0.00 0.00 0.01 0.01 0.02 0.01 0.01 0.00 0.00 0.00 0.00 0.01
0.02 0.02 0.07 0.13 0.16 0.27 0.35 0.50 0.44 0.45 0.89 2.02 2.12 1.48 0.88 0.56 0.39 0.39 0.54 0.58 0.20 0.05 0.02 0.01 0.00 0.00 0.00 0.00 0.01 0.04 0.12 0.09 0.01 0.00 0.00 0.00 0.03 0.02 0.02 0.00 0.00 0.01 0.00 0.01 0.00 0.00 0.00
0.02 0.02 0.06 0.14 0.11 0.21 0.34 0.45 0.55 0.41 1.29 2.11 2.03 1.11 0.59 0.62 0.48 0.54 0.40 0.37 0.33 0.06 0.02 0.00 0.00 0.01 0.00 0.00 0.00 0.00 0.02 0.05 0.03 0.00 0.00 0.00 0.01 0.04 0.05 0.02 0.00 0.00 0.00 0.00 0.00 0.00 0.00
0.02 0.01 0.03 0.11 0.12 0.17 0.33 0.52 0.59 0.55 0.94 1.60 1.28 1.29 1.05 0.98 0.68 0.55 0.28 0.10 0.07 0.08 0.03 0.01 0.01 0.07 0.02 0.00 0.01 0.01 0.01 0.02 0.04 0.01 0.01 0.00 0.00 0.07 0.03 0.06 0.05 0.00 0.00 0.00 0.00 0.00 0.00
0.01 0.01 0.02 0.06 0.06 0.10 0.26 0.47 0.74 0.77 0.79 1.37 1.10 1.05 1.40 0.93 0.65 0.44 0.23 0.10 0.11 0.10 0.07 0.02 0.01 0.02 0.02 0.05 0.11 0.12 0.05 0.04 0.04 0.06 0.03 0.02 0.02 0.05 0.02 0.02 0.00 0.00 0.00 0.00 0.00 0.00 0.00
0.02 0.02 0.03 0.06 0.05 0.04 0.14 0.31 0.52 0.77 0.80 1.07 1.01 1.08 1.13 0.95 0.54 0.28 0.34 0.37 0.32 0.48 0.50 0.24 0.12 0.06 0.07 0.11 0.18 0.23 0.17 0.04 0.01 0.04 0.02 0.01 0.02 0.01 0.00 0.00 0.00 0.00 0.00 0.00 0.00 0.00 0.00
0.01 0.02 0.03 0.06 0.09 0.04 0.08 0.20 0.37 0.61 0.72 0.87 0.96 0.99 1.38 1.04 0.46 0.36 0.43 0.43 0.55 0.49 0.52 0.40 0.30 0.22 0.23 0.23 0.12 0.05 0.06 0.00 0.00 0.01 0.00 0.00 0.00 0.01 0.00 0.00 0.00 0.00 0.00 0.00 0.00 0.00 0.00
0.00 0.01 0.02 0.06 0.10 0.07 0.09 0.15 0.24 0.48 0.73 0.86 0.70 0.85 1.09 0.95 0.46 0.46 0.59 0.35 0.48 0.54 0.54 0.47 0.43 0.39 0.34 0.27 0.16 0.03 0.01 0.00 0.00 0.00 0.00 0.00 0.00 0.00 0.00 0.01 0.00 0.00 0.00 0.00 0.00 0.00 0.00
0.00 0.01 0.02 0.05 0.09 0.08 0.12 0.16 0.25 0.41 0.50 0.93 0.63 0.64 0.87 0.84 0.60 0.45 0.60 0.59 0.54 0.39 0.38 0.32 0.27 0.32 0.13 0.15 0.08 0.02 0.00 0.00 0.00 0.00 0.00 0.00 0.00 0.00 0.00 0.00 0.00 0.00 0.00 0.00 0.00 0.00 0.00